This is the latest recevied weather packets stored in our database for station/object W3TMB. If no packets are shown the sender has not sent any weather packets the latest 1 day(s).
| Time | Temp. | Humidity | Pressure | Rain* | Wind** | Luminosity | Snow |
|---|---|---|---|---|---|---|---|
| 1778000639 | 26.11° C | 45% | 1004.3 hPa | 0 mm | 1.34 m/s, 252° | 560 W/m² | - |
| 1778000335 | 25.56° C | 48% | 1004.5 hPa | 0 mm | 1.34 m/s, 279° | 471 W/m² | - |
| 1778000030 | 26.11° C | 46% | 1004.2 hPa | 0 mm | 1.34 m/s, 262° | 368 W/m² | - |
| 1777999726 | 26.11° C | 45% | 1004.5 hPa | 0 mm | 1.34 m/s, 181° | 481 W/m² | - |
| 1777999423 | 26.11° C | 47% | 1004.5 hPa | 0 mm | 1.34 m/s, 68° | 563 W/m² | - |
| 1777999122 | 25° C | 49% | 1004.5 hPa | 0 mm | 0.89 m/s, 251° | 524 W/m² | - |
| 1777998820 | 25° C | 48% | 1004.6 hPa | 0 mm | 1.34 m/s, 338° | 383 W/m² | - |
| 1777998518 | 25° C | 48% | 1004.7 hPa | 0 mm | 1.79 m/s, 301° | 347 W/m² | - |
| 1777998214 | 25° C | 47% | 1004.6 hPa | 0 mm | 1.34 m/s, 244° | 345 W/m² | - |
| 1777997911 | 25° C | 48% | 1004.5 hPa | 0 mm | 2.24 m/s, 325° | 361 W/m² | - |
| 1777997608 | 25° C | 49% | 1004.7 hPa | 0 mm | 1.79 m/s, 308° | 195 W/m² | - |
| 1777997305 | 25° C | 47% | 1004.7 hPa | 0 mm | 3.13 m/s, 255° | 250 W/m² | - |
| 1777997003 | 25° C | 49% | 1005.1 hPa | 0 mm | 1.34 m/s, 297° | 236 W/m² | - |
| 1777996700 | 25° C | 48% | 1005.2 hPa | 0 mm | 2.24 m/s, 302° | 239 W/m² | - |
| 1777996395 | 25.56° C | 48% | 1005.4 hPa | 0 mm | 2.24 m/s, 310° | 306 W/m² | - |
| 1777996092 | 25.56° C | 49% | 1005.2 hPa | 0 mm | 0.89 m/s, 272° | 235 W/m² | - |
| 1777995789 | 25.56° C | 49% | 1005.2 hPa | 0 mm | 0.89 m/s, 338° | 269 W/m² | - |
| 1777995485 | 26.11° C | 49% | 1005.3 hPa | 0 mm | 1.34 m/s, 358° | 233 W/m² | - |
| 1777995182 | 25.56° C | 48% | 1005.4 hPa | 0 mm | 0.89 m/s, 247° | 729 W/m² | - |
| 1777994879 | 25.56° C | 49% | 1005.3 hPa | 0 mm | 1.79 m/s, 207° | 353 W/m² | - |
| 1777994575 | 25.56° C | 48% | 1005 hPa | 0 mm | 1.34 m/s, 302° | 740 W/m² | - |
| 1777994270 | 25.56° C | 49% | 1005.3 hPa | 0 mm | 1.34 m/s, 47° | 796 W/m² | - |
| 1777993968 | 25.56° C | 52% | 1005 hPa | 0 mm | 1.34 m/s, 352° | 835 W/m² | - |
| 1777993665 | 25.56° C | 50% | 1005.1 hPa | 0 mm | 1.34 m/s, 327° | 272 W/m² | - |
| 1777993362 | 25° C | 53% | 1005.3 hPa | 0 mm | 1.34 m/s, 352° | 314 W/m² | - |
* Rain latest hour (hover to see other rain measurements)
** Current wind speed in m/s (hover to see current wind gust speed)